[[{"header":{"parameterUnit":"m.s-1","parameterCategory":2,"la1":30.2991,"la2":30.254,"lo1":-89.0895,"lo2":-89.0444,"dy":0.0017,"dx":0.0017,"nx":28,"ny":28,"refTime":"2023-08-21T09:00:00:Z","depth":"0","parameterNumber":2,"parameterNumberName":"U-component_of_CURRENTS"},"data":[0,0,0,0,0,0,0,0,0,0,0,0,0,0,0,0,0,0,0,0,0,0,0,0,0,0,0,0,0,0,0,0,0,0,0,0,0,0,0,0,0,0,0,0,0,0,0,0,0,0,0,0,0,0,0,0,0,0,-0.2429,-0.243,0,-0.2451,-0.2451,-0.2451,-0.2403,-0.2401,-0.24,-0.2398,-0.2354,-0.2354,-0.2354,0,0,0,0,0,0,0,0,0,0,0,0,0,-0.2346,-0.2348,-0.2429,-0.243,-0.243,-0.2451,-0.2451,-0.2451,-0.2403,-0.2401,-0.2399,-0.2398,-0.2354,-0.2354,-0.2354,0,0,0,0,0,0,0,0,0,0,0,0,0,-0.2375,-0.2349,-0.2429,-0.2409,-0.2408,-0.2451,-0.2451,-0.2451,-0.2403,-0.2401,-0.2399,-0.2397,-0.2354,-0.2354,-0.2354,-0.2399,0,0,-0.2355,-0.2355,0,0,0,0,0,0,0,0,-0.2374,-0.2378,-0.2412,-0.2411,-0.2409,-0.2423,-0.2405,-0.2431,-0.2404,-0.2404,-0.2398,-0.2396,-0.2373,-0.2372,-0.238,-0.2397,-0.2395,-0.2355,-0.2355,-0.2355,-0.2355,0,0,0,0,0,0,0,-0.2372,-0.2377,-0.2436,-0.2412,-0.2411,-0.2399,-0.2401,-0.241,-0.2398,-0.2404,-0.24,-0.2405,-0.2371,-0.238,-0.2378,-0.2394,-0.2355,-0.2355,-0.2355,-0.2355,-0.2429,-0.2431,0,0,0,0,0,0,-0.2375,-0.2376,-0.2436,-0.2437,-0.2387,-0.2403,-0.2404,-0.242,-0.2399,-0.2395,-0.2407,-0.2403,-0.238,-0.2378,-0.2376,-0.2429,-0.2355,-0.2355,-0.2355,-0.2427,-0.2429,-0.2431,0,0,0,0,0,0,-0.2373,-0.238,-0.2435,-0.2407,-0.2413,-0.2406,-0.2424,-0.2421,-0.243,-0.2403,-0.2397,-0.2419,-0.2379,-0.2376,-0.2398,-0.2426,-0.2355,-0.2356,-0.2425,-0.2428,-0.243,-0.2533,0,0,0,0,0,0,-0.2371,-0.238,-0.2393,-0.2408,-0.2415,-0.248,-0.2426,-0.2423,-0.2437,-0.2432,-0.2412,-0.2405,-0.2377,-0.2399,-0.2399,-0.2425,-0.2356,-0.2423,-0.2426,-0.2429,-0.2528,-0.2539,-0.2549,0,0,0,0,0,-0.2368,-0.2404,-0.2394,-0.2401,-0.2434,-0.2482,-0.2486,-0.2471,-0.244,-0.2467,-0.2446,-0.2406,-0.2419,-0.2401,-0.2401,-0.2428,-0.2421,-0.2425,-0.2429,-0.2523,-0.2537,-0.2549,0,0,0,0,0,0,-0.2379,-0.2404,-0.2392,-0.2434,-0.2461,-0.2474,-0.2495,-0.2485,-0.2492,-0.2479,-0.244,-0.2435,-0.2463,-0.2439,-0.2419,-0.2459,-0.2409,-0.2414,-0.2481,-0.2494,-0.2504,-0.2493,-0.2356,0,0,0,0,0,-0.2389,-0.2416,-0.2441,-0.2474,-0.249,-0.2494,-0.2509,-0.2506,-0.2513,-0.2513,-0.2496,-0.248,-0.2484,-0.2482,-0.2482,-0.2514,-0.2474,-0.2527,-0.2538,-0.2547,-0.2539,-0.2507,-0.2514,-0.2445,-0.2444,-0.2444,0,0,-0.2398,-0.2417,-0.243,-0.2477,-0.2491,-0.2541,-0.2498,-0.2536,-0.257,-0.2509,-0.2543,-0.2524,-0.2503,-0.2534,-0.2542,-0.2513,-0.2553,-0.2552,-0.256,-0.2546,-0.2512,-0.2518,-0.2524,-0.2447,-0.2447,-0.2446,0,0,-0.2442,-0.2455,-0.2494,-0.2533,-0.2569,-0.2579,-0.2595,-0.2619,-0.262,-0.2664,-0.2619,-0.2612,-0.2633,-0.2608,-0.2602,-0.2674,-0.2616,-0.268,-0.2721,-0.2692,-0.2697,-0.27,-0.2686,-0.2687,-0.2679,-0.2679,-0.268,0,-0.2453,-0.2513,-0.2515,-0.2576,-0.2617,-0.2602,-0.2668,-0.268,-0.2704,-0.2707,-0.2688,-0.2686,-0.2664,-0.2677,-0.2697,-0.2696,-0.2676,-0.2675,-0.2704,-0.2707,-0.2709,-0.2693,-0.2693,-0.2685,-0.2684,-0.2684,-0.2683,0,-0.2529,-0.2588,-0.2623,-0.2688,-0.2729,-0.2791,-0.2812,-0.2835,-0.2829,-0.2825,-0.284,-0.2807,-0.2793,-0.2793,-0.2769,-0.2776,-0.2759,-0.2726,-0.2669,-0.2722,-0.2702,-0.27,-0.2693,-0.2691,-0.2689,-0.2688,0,0,-0.2533,-0.2653,-0.2665,-0.2724,-0.2802,-0.2843,-0.2901,-0.2944,-0.2961,-0.296,-0.2977,-0.2966,-0.2915,-0.2903,-0.2861,-0.283,-0.2834,-0.279,-0.2786,-0.2771,-0.2786,-0.2693,-0.2682,-0.2809,-0.2809,-0.2809,-0.2777,0,-0.2597,-0.2727,-0.2768,-0.2892,-0.2968,-0.2992,-0.3046,-0.3071,-0.3072,-0.308,-0.3023,-0.3025,-0.2968,-0.2957,-0.292,-0.2856,-0.283,-0.2846,-0.274,-0.2736,-0.2643,-0.2676,-0.2579,-0.2534,-0.2774,-0.2774,-0.2774,0,-0.2656,-0.2745,-0.2874,-0.3007,-0.3038,-0.3096,-0.3163,-0.3209,-0.3206,-0.3201,-0.317,-0.3124,-0.308,-0.3021,-0.2928,-0.2945,-0.2875,-0.2816,-0.2813,-0.2681,-0.2639,-0.2515,-0.2521,-0.2487,-0.277,-0.277,-0.2771,0,-0.2652,-0.2817,-0.2919,-0.2972,-0.3106,-0.3153,-0.3206,-0.3234,-0.3253,-0.3258,-0.3255,-0.3204,-0.3156,-0.308,-0.2947,-0.295,-0.283,-0.2819,-0.2672,-0.2666,-0.2534,-0.2516,-0.2481,-0.2749,-0.2749,-0.2749,-0.2749,0,-0.2708,-0.279,-0.2926,-0.2988,-0.3092,-0.3176,-0.3243,-0.3281,-0.3307,-0.3297,-0.3297,-0.3262,-0.3163,-0.3075,-0.2979,-0.2808,-0.2853,-0.2676,-0.2644,-0.2571,-0.2557,-0.2478,-0.249,-0.2748,-0.2748,-0.2748,-0.2749,0,-0.2673,-0.2773,-0.2893,-0.3047,-0.3092,-0.3151,-0.3255,-0.328,-0.333,-0.3315,-0.3315,-0.329,-0.3175,-0.3067,-0.2922,-0.2821,-0.2631,-0.2618,-0.2544,-0.2501,-0.2335,-0.2356,-0.2252,-0.2193,-0.2476,-0.2473,-0.2471,0,-0.267,-0.2728,-0.2893,-0.294,-0.3007,-0.3107,-0.3152,-0.3256,-0.327,-0.33,-0.3273,-0.3205,-0.3103,-0.2899,-0.2708,-0.2535,-0.2507,-0.2359,-0.2333,-0.2306,-0.2307,-0.2317,-0.2277,-0.2222,-0.2218,-0.2215,-0.2212,0,-0.264,-0.268,-0.276,-0.286,-0.2931,-0.3013,-0.3092,-0.3117,-0.3191,-0.3213,-0.3182,-0.3126,-0.2917,-0.2678,-0.2459,-0.2345,-0.2303,-0.2284,-0.227,-0.211,-0.2104,-0.2038,-0.2289,-0.2182,-0.2185,-0.2187,-0.2189,-0.219,-0.2566,-0.2592,-0.267,-0.2741,-0.2829,-0.2875,-0.2903,-0.2981,-0.3015,-0.3013,-0.3016,-0.2894,-0.266,-0.2333,-0.222,-0.1978,-0.2048,-0.1913,-0.1946,-0.1964,-0.188,-0.2068,-0.191,-0.1911,-0.1912,-0.1913,-0.1914,0,-0.2446,-0.2474,-0.2541,-0.2622,-0.2659,-0.275,-0.2816,-0.2821,-0.2835,-0.2817,-0.2785,-0.251,-0.226,-0.2059,-0.1771,-0.1672,-0.1645,-0.1645,-0.1658,-0.1636,-0.1801,-0.1761,-0.1545,-0.1545,-0.1545,-0.1545,-0.1546,-0.1546,-0.2381,-0.2368,-0.2397,-0.2414,-0.2479,-0.2486,-0.2505,-0.254,-0.2523,-0.2433,-0.2294,-0.2194,-0.1967,-0.1844,-0.1611,-0.1527,-0.149,-0.1441,-0.1474,-0.1622,-0.1651,-0.1679,-0.1643,-0.1406,-0.1406,-0.1253,-0.1252,-0.1251]},{"header":{"parameterUnit":"m.s-1","parameterCategory":2,"la1":30.2991,"la2":30.254,"lo1":-89.0895,"lo2":-89.0444,"dy":0.0017,"dx":0.0017,"nx":28,"ny":28,"refTime":"2023-08-21T09:00:00:Z","depth":"0","parameterNumber":3,"parameterNumberName":"V-component_of_CURRENTS"},"data":[0,0,0,0,0,0,0,0,0,0,0,0,0,0,0,0,0,0,0,0,0,0,0,0,0,0,0,0,0,0,0,0,0,0,0,0,0,0,0,0,0,0,0,0,0,0,0,0,0,0,0,0,0,0,0,0,0,0,0.0435,0.0434,0,0.0428,0.0428,0.0428,0.0458,0.0459,0.0459,0.046,0.0485,0.0485,0.0485,0,0,0,0,0,0,0,0,0,0,0,0,0,0.0379,0.038,0.0435,0.0434,0.0434,0.0428,0.0428,0.0428,0.0458,0.0459,0.0459,0.046,0.0485,0.0485,0.0485,0,0,0,0,0,0,0,0,0,0,0,0,0,0.0395,0.0381,0.0435,0.0444,0.0445,0.0428,0.0428,0.0428,0.0458,0.0459,0.0459,0.046,0.0484,0.0485,0.0485,0.0473,0,0,0.0486,0.0486,0,0,0,0,0,0,0,0,0.0394,0.0398,0.0444,0.0444,0.0444,0.0441,0.0417,0.0443,0.0458,0.0458,0.046,0.046,0.0469,0.0471,0.0474,0.0474,0.0476,0.0486,0.0486,0.0487,0.0487,0,0,0,0,0,0,0,0.0393,0.0397,0.0436,0.0443,0.0443,0.0416,0.0421,0.0422,0.0464,0.0458,0.0459,0.0451,0.0471,0.0474,0.0475,0.0476,0.0486,0.0487,0.0487,0.0487,0.0511,0.0512,0,0,0,0,0,0,0.0389,0.0397,0.0437,0.0436,0.0415,0.0417,0.0422,0.0445,0.0463,0.0465,0.045,0.0452,0.0473,0.0474,0.0476,0.0501,0.0487,0.0487,0.0487,0.0511,0.0511,0.0512,0,0,0,0,0,0,0.0389,0.0394,0.0437,0.041,0.0413,0.0417,0.0442,0.0444,0.0448,0.0456,0.046,0.0452,0.0473,0.0475,0.0483,0.0501,0.0487,0.0487,0.051,0.0511,0.0511,0.0527,0,0,0,0,0,0,0.0388,0.0395,0.041,0.0411,0.0415,0.0416,0.0441,0.0443,0.044,0.0442,0.0458,0.0462,0.0474,0.0482,0.0483,0.0501,0.0488,0.051,0.051,0.0511,0.0526,0.0528,0.053,0,0,0,0,0,0.0386,0.0397,0.0412,0.0415,0.0437,0.0415,0.0414,0.0421,0.0439,0.043,0.0454,0.0461,0.0489,0.0482,0.0483,0.0502,0.0509,0.051,0.0511,0.0525,0.0528,0.053,0,0,0,0,0,0,0.0366,0.0401,0.0417,0.0436,0.0422,0.0418,0.0411,0.0417,0.0429,0.0438,0.0458,0.0462,0.0479,0.0482,0.0475,0.0512,0.0503,0.0504,0.0513,0.0516,0.0518,0.0517,0.0488,0,0,0,0,0,0.0372,0.0402,0.0406,0.0416,0.0413,0.0414,0.0407,0.0409,0.0414,0.0421,0.0432,0.0455,0.0483,0.0491,0.0503,0.0514,0.0552,0.0529,0.0531,0.0533,0.0533,0.061,0.0619,0.0515,0.0515,0.0515,0,0,0.0366,0.0386,0.0403,0.0414,0.0411,0.0393,0.0413,0.0397,0.0395,0.0421,0.0427,0.0455,0.0486,0.0508,0.0516,0.0513,0.0585,0.0534,0.0536,0.0535,0.0612,0.0622,0.0632,0.0516,0.0515,0.0515,0,0,0.0336,0.0387,0.0385,0.0377,0.0365,0.0374,0.0368,0.0363,0.0379,0.0378,0.0418,0.0458,0.0466,0.0514,0.0537,0.0553,0.0591,0.0555,0.0567,0.0642,0.0652,0.0661,0.0736,0.0751,0.0559,0.0559,0.0559,0,0.0316,0.0325,0.037,0.0347,0.0341,0.0365,0.0338,0.0355,0.0353,0.0381,0.0375,0.0456,0.0475,0.0551,0.0559,0.0561,0.0606,0.0558,0.0647,0.0656,0.0665,0.074,0.0757,0.056,0.0559,0.0559,0.0559,0,0.0275,0.0272,0.0262,0.0268,0.0275,0.0247,0.0279,0.0297,0.0324,0.0348,0.0413,0.0456,0.0511,0.053,0.0546,0.063,0.0644,0.0641,0.0643,0.0677,0.0753,0.0771,0.0561,0.0561,0.056,0.056,0,0,0.024,0.0234,0.0226,0.0214,0.0229,0.0226,0.0257,0.0292,0.0334,0.0358,0.0422,0.0482,0.0526,0.0556,0.0603,0.0667,0.0772,0.0676,0.068,0.0755,0.0946,0.0934,0.0952,0.0787,0.079,0.0792,0.098,0,0.0176,0.0113,0.0152,0.0112,0.0084,0.0151,0.0187,0.0242,0.0301,0.037,0.0461,0.0524,0.0533,0.0577,0.0645,0.0746,0.0816,0.0722,0.0897,0.0902,0.0892,0.0971,0.0882,0.1039,0.0997,0.1,0.1002,0,0.0118,0.0083,0.0022,0.0046,0.005,0.005,0.0147,0.0181,0.031,0.0366,0.0463,0.0535,0.0658,0.0646,0.084,0.0781,0.0857,0.0926,0.0935,0.0928,0.0922,0.0996,0.1072,0.1075,0.1029,0.1026,0.1024,0,0.0053,0.0009,-0.0037,-0.0044,-0.0016,0.0006,0.0049,0.0169,0.0236,0.0371,0.0444,0.0584,0.0681,0.0791,0.093,0.0895,0.1139,0.1111,0.1176,0.1176,0.1136,0.1128,0.1237,0.1236,0.1236,0.1235,0.1235,0,-0.0025,-0.006,-0.0081,-0.0117,-0.0124,-0.0058,-0.0007,0.0067,0.0208,0.0316,0.0433,0.0558,0.0721,0.0879,0.0969,0.1142,0.1177,0.1201,0.1232,0.1139,0.1129,0.1154,0.1184,0.1242,0.1241,0.1239,0.1238,0,-0.0089,-0.0111,-0.0171,-0.0176,-0.0169,-0.017,-0.0065,0.0004,0.0133,0.0284,0.0335,0.0569,0.0778,0.0935,0.1153,0.1208,0.138,0.1398,0.1279,0.129,0.1315,0.1349,0.1565,0.1599,0.1505,0.1505,0.1506,0,-0.0128,-0.0178,-0.0234,-0.0253,-0.0263,-0.0242,-0.019,-0.006,0.0035,0.0305,0.0389,0.0631,0.0829,0.114,0.1254,0.1426,0.1456,0.1446,0.135,0.133,0.1391,0.143,0.1444,0.1319,0.1318,0.1317,0.1317,0,-0.0202,-0.0229,-0.028,-0.0337,-0.0328,-0.0284,-0.0208,-0.0143,0.0067,0.0219,0.0482,0.0663,0.0953,0.1116,0.131,0.1399,0.1442,0.1437,0.1455,0.1296,0.131,0.135,0.1186,0.1311,0.1311,0.1312,0.1312,0.1312,-0.0247,-0.0301,-0.0365,-0.0401,-0.0386,-0.0309,-0.025,-0.0134,0.003,0.0259,0.0483,0.0673,0.0916,0.1175,0.129,0.1354,0.1446,0.1359,0.1421,0.1475,0.145,0.1273,0.1396,0.1397,0.1398,0.1399,0.1399,0,-0.03,-0.0344,-0.0399,-0.0423,-0.0395,-0.0363,-0.023,-0.0147,0.0025,0.0167,0.0396,0.0588,0.0821,0.0986,0.1172,0.1287,0.1328,0.1366,0.1373,0.1403,0.1266,0.1189,0.1223,0.1223,0.1223,0.1223,0.1223,0.1223,-0.0326,-0.0395,-0.0426,-0.042,-0.0406,-0.0318,-0.0237,-0.0133,-0.005,0.0093,0.014,0.024,0.0529,0.1043,0.124,0.1276,0.1382,0.1425,0.1542,0.1373,0.1375,0.1376,0.1308,0.1366,0.1366,0.1597,0.1599,0.1601]}],[{"header":{"parameterUnit":"m.s-1","parameterCategory":2,"la1":30.2991,"la2":30.254,"lo1":-89.0895,"lo2":-89.0444,"dy":0.0017,"dx":0.0017,"nx":28,"ny":28,"refTime":"2023-08-21T09:00:00:Z","depth":"2","parameterNumber":2,"parameterNumberName":"U-component_of_CURRENTS"},"data":[0,0,0,0,0,0,0,0,0,0,0,0,0,0,0,0,0,0,0,0,0,0,0,0,0,0,0,0,0,0,0,0,0,0,0,0,0,0,0,0,0,0,0,0,0,0,0,0,0,0,0,0,0,0,0,0,0,0,-0.1901,-0.1901,0,-0.1916,-0.1916,-0.1916,-0.1861,-0.1859,-0.1858,-0.1857,-0.1774,-0.1773,-0.1772,0,0,0,0,0,0,0,0,0,0,0,0,0,-0.1814,-0.1816,-0.1901,-0.1901,-0.1902,-0.1916,-0.1916,-0.1916,-0.1861,-0.1859,-0.1858,-0.1856,-0.1774,-0.1773,-0.1772,0,0,0,0,0,0,0,0,0,0,0,0,0,-0.1841,-0.1817,-0.1901,-0.1878,-0.1876,-0.1916,-0.1916,-0.1916,-0.1861,-0.1859,-0.1857,-0.1855,-0.1775,-0.1773,-0.1772,-0.1806,0,0,-0.1768,-0.1767,0,0,0,0,0,0,0,0,-0.1839,-0.1843,-0.1881,-0.188,-0.1878,-0.1886,-0.1855,-0.1875,-0.1862,-0.1864,-0.1857,-0.1854,-0.1806,-0.1802,-0.1807,-0.1802,-0.1798,-0.1768,-0.1767,-0.1766,-0.1766,0,0,0,0,0,0,0,-0.1837,-0.1842,-0.1904,-0.1882,-0.188,-0.1863,-0.1865,-0.1859,-0.1843,-0.1864,-0.1861,-0.1867,-0.1804,-0.1809,-0.1804,-0.1797,-0.1768,-0.1767,-0.1766,-0.1765,-0.1816,-0.1818,0,0,0,0,0,0,-0.1844,-0.1841,-0.1904,-0.1905,-0.1856,-0.1867,-0.1868,-0.1884,-0.1845,-0.1839,-0.1869,-0.1865,-0.1812,-0.1806,-0.1801,-0.1857,-0.1766,-0.1765,-0.1764,-0.1814,-0.1816,-0.1819,0,0,0,0,0,0,-0.1842,-0.185,-0.1903,-0.1874,-0.188,-0.1871,-0.1889,-0.1885,-0.1882,-0.185,-0.1841,-0.1868,-0.181,-0.1803,-0.1802,-0.1852,-0.1765,-0.1763,-0.1811,-0.1815,-0.1818,-0.1957,0,0,0,0,0,0,-0.184,-0.185,-0.1862,-0.1875,-0.1882,-0.1932,-0.1891,-0.1887,-0.189,-0.1885,-0.1847,-0.1837,-0.1808,-0.1805,-0.1801,-0.1849,-0.1762,-0.1808,-0.1813,-0.1816,-0.195,-0.1965,-0.1978,0,0,0,0,0,-0.1837,-0.1873,-0.1863,-0.1871,-0.1901,-0.1934,-0.1936,-0.192,-0.1893,-0.1905,-0.1879,-0.1838,-0.1827,-0.1806,-0.1801,-0.1849,-0.1807,-0.1812,-0.1816,-0.1944,-0.1962,-0.1977,0,0,0,0,0,0,-0.1851,-0.1871,-0.1861,-0.1902,-0.1916,-0.1925,-0.1936,-0.1926,-0.1919,-0.1903,-0.1863,-0.1854,-0.1873,-0.1842,-0.1819,-0.1876,-0.1812,-0.1816,-0.1911,-0.1927,-0.1941,-0.1943,-0.1761,0,0,0,0,0,-0.1861,-0.1883,-0.1901,-0.1932,-0.1938,-0.1936,-0.1945,-0.1937,-0.1935,-0.1928,-0.191,-0.1891,-0.1895,-0.1892,-0.1883,-0.1915,-0.1863,-0.1943,-0.1957,-0.1969,-0.1968,-0.1933,-0.1943,-0.1835,-0.1834,-0.1834,0,0,-0.1873,-0.1888,-0.19,-0.1934,-0.1937,-0.1971,-0.1935,-0.1955,-0.1984,-0.1921,-0.1949,-0.1935,-0.1912,-0.1949,-0.1956,-0.1927,-0.1977,-0.1975,-0.1986,-0.1978,-0.1939,-0.195,-0.1959,-0.1838,-0.1837,-0.1837,0,0,-0.1915,-0.1922,-0.1952,-0.1974,-0.1991,-0.1994,-0.2002,-0.2017,-0.2019,-0.2055,-0.2019,-0.2031,-0.2038,-0.2038,-0.2038,-0.2121,-0.2048,-0.2125,-0.2203,-0.2171,-0.2179,-0.2185,-0.2148,-0.215,-0.2137,-0.2137,-0.2138,0,-0.1933,-0.1977,-0.1967,-0.2009,-0.2039,-0.2009,-0.2059,-0.2065,-0.2082,-0.2108,-0.2075,-0.2106,-0.2084,-0.2132,-0.2168,-0.2153,-0.2116,-0.2144,-0.2188,-0.2193,-0.2197,-0.2157,-0.2158,-0.2145,-0.2144,-0.2143,-0.2142,0,-0.1996,-0.2037,-0.206,-0.2099,-0.2126,-0.2166,-0.2178,-0.2206,-0.2206,-0.2221,-0.2265,-0.2237,-0.2253,-0.2265,-0.2246,-0.2286,-0.2244,-0.2206,-0.2144,-0.2216,-0.217,-0.2168,-0.2155,-0.2152,-0.215,-0.2149,0,0,-0.2035,-0.2095,-0.2101,-0.2131,-0.2183,-0.2204,-0.2272,-0.233,-0.2369,-0.2379,-0.2432,-0.2453,-0.2424,-0.242,-0.2391,-0.2376,-0.2386,-0.2318,-0.2312,-0.2279,-0.2312,-0.2313,-0.2309,-0.2354,-0.2354,-0.2354,-0.2272,0,-0.2092,-0.2166,-0.22,-0.2276,-0.2313,-0.2345,-0.2407,-0.245,-0.2482,-0.252,-0.2503,-0.2524,-0.2484,-0.2488,-0.2473,-0.2398,-0.2384,-0.2411,-0.2247,-0.2242,-0.2233,-0.2309,-0.2043,-0.195,-0.2269,-0.2269,-0.2269,0,-0.2142,-0.2188,-0.2273,-0.2354,-0.2376,-0.2437,-0.2528,-0.2568,-0.2628,-0.2653,-0.2678,-0.2647,-0.2639,-0.2575,-0.2488,-0.2505,-0.2428,-0.2364,-0.2358,-0.2304,-0.224,-0.1927,-0.1933,-0.2264,-0.2264,-0.2264,-0.2265,0,-0.213,-0.2235,-0.2298,-0.2332,-0.2425,-0.25,-0.2545,-0.2627,-0.2629,-0.272,-0.2716,-0.2732,-0.267,-0.2612,-0.2496,-0.2489,-0.2377,-0.234,-0.2269,-0.2266,-0.1979,-0.1953,-0.2279,-0.2279,-0.2279,-0.2279,-0.2279,0,-0.2176,-0.2219,-0.2305,-0.2344,-0.2406,-0.2497,-0.2563,-0.2628,-0.2682,-0.2694,-0.2744,-0.2744,-0.2668,-0.2597,-0.2523,-0.2394,-0.2391,-0.2295,-0.2255,-0.2026,-0.2006,-0.2221,-0.2215,-0.2276,-0.2277,-0.2277,-0.2278,0,-0.2139,-0.2205,-0.2248,-0.2363,-0.2396,-0.2423,-0.2492,-0.254,-0.2612,-0.2626,-0.2638,-0.2684,-0.2656,-0.2574,-0.247,-0.2385,-0.2299,-0.2251,-0.2001,-0.1937,-0.2202,-0.2205,-0.2171,-0.2171,-0.217,-0.217,-0.217,0,-0.2122,-0.2152,-0.22,-0.2212,-0.2274,-0.2331,-0.2378,-0.2473,-0.2522,-0.2602,-0.2607,-0.2608,-0.2578,-0.2442,-0.2298,-0.2159,-0.2288,-0.192,-0.1882,-0.2232,-0.2195,-0.2199,-0.2202,-0.1538,-0.1532,-0.1528,-0.1524,0,-0.2074,-0.2078,-0.2095,-0.2113,-0.2166,-0.2191,-0.2289,-0.2286,-0.242,-0.2415,-0.2476,-0.2454,-0.235,-0.2107,-0.1967,-0.1887,-0.1937,-0.1834,-0.2211,-0.1653,-0.1641,-0.1605,-0.1626,-0.1485,-0.1489,-0.1492,-0.1494,-0.1496,-0.1987,-0.1957,-0.1975,-0.1985,-0.2033,-0.2079,-0.2021,-0.2088,-0.2068,-0.1952,-0.2156,-0.1949,-0.1949,-0.1537,-0.153,-0.1537,-0.1658,-0.1592,-0.16,-0.1615,-0.1604,-0.1597,-0.1428,-0.1432,-0.1435,-0.1437,-0.144,0,-0.1866,-0.1861,-0.1863,-0.1863,-0.1866,-0.1956,-0.1966,-0.18,-0.1661,-0.1591,-0.1459,-0.1223,-0.104,-0.1146,-0.1015,-0.1062,-0.1007,-0.1135,-0.1016,-0.1052,-0.1086,-0.1046,-0.0723,-0.0722,-0.0721,-0.072,0,0,-0.1798,-0.1748,-0.1753,-0.1705,-0.1727,-0.1633,-0.1581,-0.1286,-0.1106,-0.0814,-0.0659,-0.0525,-0.0814,-0.0575,-0.067,-0.0673,-0.0837,-0.0656,-0.1199,-0.1071,-0.1102,-0.1299,-0.1275,0,0,0,0,0]},{"header":{"parameterUnit":"m.s-1","parameterCategory":2,"la1":30.2991,"la2":30.254,"lo1":-89.0895,"lo2":-89.0444,"dy":0.0017,"dx":0.0017,"nx":28,"ny":28,"refTime":"2023-08-21T09:00:00:Z","depth":"2","parameterNumber":3,"parameterNumberName":"V-component_of_CURRENTS"},"data":[0,0,0,0,0,0,0,0,0,0,0,0,0,0,0,0,0,0,0,0,0,0,0,0,0,0,0,0,0,0,0,0,0,0,0,0,0,0,0,0,0,0,0,0,0,0,0,0,0,0,0,0,0,0,0,0,0,0,-0.0749,-0.0749,0,-0.0712,-0.0712,-0.0712,-0.0636,-0.0634,-0.0633,-0.0631,-0.0577,-0.0577,-0.0577,0,0,0,0,0,0,0,0,0,0,0,0,0,-0.0701,-0.0703,-0.0749,-0.0749,-0.0748,-0.0712,-0.0712,-0.0711,-0.0636,-0.0634,-0.0632,-0.063,-0.0577,-0.0577,-0.0577,0,0,0,0,0,0,0,0,0,0,0,0,0,-0.0702,-0.0704,-0.075,-0.0704,-0.07,-0.0712,-0.0712,-0.0711,-0.0637,-0.0634,-0.0632,-0.0629,-0.0577,-0.0577,-0.0577,-0.0631,0,0,-0.0578,-0.0578,0,0,0,0,0,0,0,0,-0.0702,-0.0704,-0.0712,-0.0707,-0.0702,-0.0674,-0.0675,-0.0683,-0.0637,-0.0664,-0.0631,-0.0628,-0.0608,-0.0605,-0.0608,-0.0628,-0.0626,-0.0578,-0.0578,-0.0578,-0.0578,0,0,0,0,0,0,0,-0.0702,-0.0705,-0.0737,-0.0711,-0.0705,-0.0667,-0.0665,-0.0676,-0.0653,-0.0661,-0.0655,-0.0647,-0.0605,-0.0608,-0.0606,-0.0625,-0.0578,-0.0578,-0.0578,-0.0578,-0.0521,-0.052,0,0,0,0,0,0,-0.0708,-0.0706,-0.0738,-0.0736,-0.0693,-0.067,-0.0668,-0.0688,-0.0653,-0.0644,-0.065,-0.0644,-0.0609,-0.0606,-0.0604,-0.0505,-0.0578,-0.0578,-0.0579,-0.0523,-0.0521,-0.0519,0,0,0,0,0,0,-0.0707,-0.0712,-0.074,-0.0715,-0.0716,-0.0674,-0.0696,-0.0688,-0.0653,-0.0643,-0.0634,-0.0617,-0.0607,-0.0604,-0.0569,-0.0508,-0.0578,-0.0579,-0.0525,-0.0522,-0.052,-0.041,0,0,0,0,0,0,-0.0707,-0.0713,-0.0731,-0.0717,-0.0717,-0.0734,-0.0698,-0.0689,-0.0653,-0.0644,-0.0614,-0.0608,-0.0604,-0.0568,-0.0569,-0.051,-0.0579,-0.0527,-0.0524,-0.0521,-0.0416,-0.0404,-0.0394,0,0,0,0,0,-0.0706,-0.0734,-0.0733,-0.0736,-0.0744,-0.0734,-0.0731,-0.0692,-0.0654,-0.0648,-0.0606,-0.0607,-0.0548,-0.0568,-0.0569,-0.0508,-0.0529,-0.0525,-0.0521,-0.042,-0.0406,-0.0394,0,0,0,0,0,0,-0.0739,-0.0728,-0.0727,-0.0756,-0.0741,-0.0719,-0.0707,-0.068,-0.0645,-0.062,-0.0601,-0.0594,-0.0529,-0.0551,-0.0573,-0.0483,-0.0534,-0.053,-0.0456,-0.0443,-0.0433,-0.0418,-0.0579,0,0,0,0,0,-0.0756,-0.0765,-0.0752,-0.0779,-0.0762,-0.0731,-0.0718,-0.0691,-0.0658,-0.0638,-0.0608,-0.0571,-0.0526,-0.0509,-0.0488,-0.0463,-0.0469,-0.0421,-0.041,-0.0401,-0.039,-0.0385,-0.0373,-0.0507,-0.0507,-0.0507,0,0,-0.0786,-0.0774,-0.0787,-0.0784,-0.0762,-0.0743,-0.0716,-0.0687,-0.0655,-0.0642,-0.0579,-0.0534,-0.0509,-0.0451,-0.0426,-0.0457,-0.0355,-0.0396,-0.0388,-0.0382,-0.038,-0.0367,-0.0356,-0.0504,-0.0505,-0.0505,0,0,-0.0807,-0.0825,-0.0814,-0.0788,-0.0745,-0.0743,-0.0726,-0.0682,-0.0639,-0.0585,-0.0541,-0.0459,-0.0424,-0.0374,-0.0347,-0.0276,-0.0292,-0.0267,-0.0205,-0.02,-0.0189,-0.018,-0.0122,-0.0108,-0.0269,-0.0269,-0.0269,0,-0.0838,-0.0824,-0.0814,-0.0771,-0.0743,-0.0735,-0.0701,-0.0679,-0.0625,-0.0574,-0.0548,-0.0409,-0.0377,-0.0284,-0.0231,-0.0245,-0.0242,-0.0252,-0.0185,-0.0176,-0.0169,-0.0113,-0.0099,-0.0263,-0.0264,-0.0264,-0.0265,0,-0.0829,-0.0804,-0.0788,-0.0745,-0.0726,-0.0699,-0.0661,-0.0626,-0.0567,-0.0521,-0.0393,-0.0329,-0.0247,-0.0204,-0.0182,-0.0095,-0.0105,-0.0165,-0.0217,-0.0148,-0.0093,-0.0081,-0.0255,-0.0257,-0.0259,-0.026,0,0,-0.0924,-0.0807,-0.0797,-0.0767,-0.0695,-0.0702,-0.0629,-0.0574,-0.0529,-0.0428,-0.0336,-0.0192,-0.014,-0.0107,-0.0066,-0.0028,0.0073,-0.006,-0.0063,0.0002,0.0122,-0.0015,-0.0015,0.001,0.0012,0.0013,0.0156,0,-0.0913,-0.0845,-0.0773,-0.0737,-0.0709,-0.0645,-0.0603,-0.0545,-0.0468,-0.0396,-0.0268,-0.0176,-0.0118,-0.0054,-0.0003,0.0039,0.0101,0.0043,0.0041,0.0043,-0.0086,-0.0009,-0.0002,0.0111,0.0168,0.017,0.0171,0,-0.0914,-0.0869,-0.0797,-0.0732,-0.0712,-0.0679,-0.061,-0.0574,-0.0454,-0.037,-0.0232,-0.0157,-0.0019,-0.0017,0.0121,0.0074,0.0124,0.0158,0.0162,-0.0003,-0.0075,0.0041,0.013,0.0191,0.0189,0.0188,0.0186,0,-0.1006,-0.0901,-0.0854,-0.0819,-0.0736,-0.0671,-0.0648,-0.054,-0.0533,-0.0352,-0.032,-0.0132,-0.0084,0.0029,0.0114,0.0129,0.0209,0.022,0.0163,0.0157,0.0143,0.0128,0.031,0.031,0.031,0.0309,0.0309,0,-0.1033,-0.1005,-0.0883,-0.086,-0.0842,-0.0739,-0.0717,-0.0632,-0.0548,-0.0568,-0.0336,-0.0327,-0.0086,-0.0022,0.0105,0.0147,0.0196,0.0201,0.0175,0.0183,0.0172,0.0201,0.0186,0.0315,0.0314,0.0312,0.0312,0,-0.1127,-0.1035,-0.1007,-0.09,-0.0873,-0.0869,-0.0832,-0.0845,-0.071,-0.0724,-0.0672,-0.049,-0.0364,-0.0166,0.0003,0.0071,0.0171,0.0164,0.0181,0.0152,0.0156,0.0146,0.0205,0.0201,0.0198,0.0195,0.0193,0,-0.1162,-0.114,-0.1077,-0.1096,-0.103,-0.1016,-0.1036,-0.0931,-0.095,-0.0872,-0.0908,-0.0751,-0.0634,-0.0408,-0.0222,0.0012,0.0038,0.0087,0.0114,0.0173,0.0142,0.0137,0.0131,0.0199,0.0197,0.0195,0.0194,0,-0.1245,-0.1211,-0.12,-0.1237,-0.1245,-0.1285,-0.1277,-0.1307,-0.1224,-0.1187,-0.1123,-0.0993,-0.0773,-0.0504,-0.0262,-0.0143,0.0071,0.0052,0.0111,0.0162,0.016,0.0131,0.0128,0.0179,0.018,0.0182,0.0182,0.0183,-0.1322,-0.135,-0.1344,-0.1388,-0.1436,-0.1477,-0.1476,-0.1471,-0.1459,-0.1326,-0.1298,-0.1063,-0.0835,-0.044,-0.0253,-0.0072,-0.0087,0.0021,0.0032,0.0043,-0.0047,-0.0063,-0.0094,-0.0094,-0.0094,-0.0094,-0.0094,0,-0.1396,-0.1433,-0.1507,-0.1532,-0.161,-0.1596,-0.1604,-0.1533,-0.1461,-0.1364,-0.1222,-0.0931,-0.0689,-0.0434,-0.0169,-0.0034,0.006,0.0013,0.0136,0.0144,0.0153,0.0077,0.006,0.0061,0.0063,0.0064,0,0,-0.1436,-0.1505,-0.1538,-0.1651,-0.1693,-0.1693,-0.1667,-0.1513,-0.1365,-0.1133,-0.0986,-0.0906,-0.0646,-0.0424,-0.0233,-0.0055,0.0036,-0.0023,-0.0174,-0.0043,-0.0032,0.0108,-0.0011,0,0,0,0,0]}],[{"header":{"parameterUnit":"m.s-1","parameterCategory":2,"la1":30.2991,"la2":30.254,"lo1":-89.0895,"lo2":-89.0444,"dy":0.0017,"dx":0.0017,"nx":28,"ny":28,"refTime":"2023-08-21T09:00:00:Z","depth":"4","parameterNumber":2,"parameterNumberName":"U-component_of_CURRENTS"},"data":[0,0,0,0,0,0,0,0,0,0,0,0,0,0,0,0,0,0,0,0,0,0,0,0,0,0,0,0,0,0,0,0,0,0,0,0,0,0,0,0,0,0,0,0,0,0,0,0,0,0,0,0,0,0,0,0,0,0,-0.068,-0.068,0,-0.0672,-0.0672,-0.0671,-0.0675,-0.0676,-0.0676,-0.0677,-0.0732,-0.0732,-0.0733,0,0,0,0,0,0,0,0,0,0,0,0,0,-0.0618,-0.0619,-0.068,-0.068,-0.068,-0.0672,-0.0671,-0.0671,-0.0675,-0.0676,-0.0676,-0.0677,-0.0731,-0.0732,-0.0733,0,0,0,0,0,0,0,0,0,0,0,0,0,-0.0627,-0.062,-0.068,-0.0685,-0.0685,-0.0672,-0.0671,-0.0671,-0.0675,-0.0676,-0.0677,-0.0677,-0.0731,-0.0732,-0.0734,-0.0723,0,0,-0.0738,-0.0738,0,0,0,0,0,0,0,0,-0.0626,-0.0629,-0.0684,-0.0684,-0.0685,-0.0679,-0.067,-0.0693,-0.0675,-0.0674,-0.0677,-0.0678,-0.0722,-0.0724,-0.0713,-0.0726,-0.0728,-0.0738,-0.0738,-0.0739,-0.0739,0,0,0,0,0,0,0,-0.0626,-0.0629,-0.0672,-0.0684,-0.0685,-0.066,-0.0663,-0.0673,-0.0691,-0.0674,-0.0676,-0.0682,-0.0723,-0.0712,-0.0715,-0.0729,-0.0738,-0.0739,-0.074,-0.074,-0.0872,-0.0874,0,0,0,0,0,0,-0.0639,-0.0629,-0.0673,-0.0672,-0.0663,-0.0661,-0.0664,-0.0677,-0.0689,-0.0693,-0.0681,-0.0682,-0.0709,-0.0713,-0.0717,-0.0829,-0.0739,-0.074,-0.0741,-0.0869,-0.0872,-0.0875,0,0,0,0,0,0,-0.0638,-0.0644,-0.0673,-0.0653,-0.0656,-0.0662,-0.0676,-0.0676,-0.0695,-0.0694,-0.0698,-0.0704,-0.071,-0.0715,-0.0736,-0.0827,-0.0741,-0.0742,-0.0866,-0.087,-0.0874,-0.0975,0,0,0,0,0,0,-0.0637,-0.0643,-0.0659,-0.0655,-0.0658,-0.0685,-0.0676,-0.0675,-0.0698,-0.0699,-0.0715,-0.0719,-0.0711,-0.0734,-0.0737,-0.0827,-0.0743,-0.0862,-0.0868,-0.0872,-0.0968,-0.0982,-0.0993,0,0,0,0,0,-0.0634,-0.0635,-0.066,-0.0666,-0.0679,-0.0687,-0.0686,-0.0689,-0.0698,-0.0709,-0.071,-0.072,-0.0771,-0.0735,-0.0739,-0.0832,-0.086,-0.0866,-0.0872,-0.0962,-0.0979,-0.0993,0,0,0,0,0,0,-0.0616,-0.0636,-0.0663,-0.0674,-0.0698,-0.069,-0.0691,-0.0707,-0.0714,-0.072,-0.0721,-0.0725,-0.0786,-0.0785,-0.0746,-0.0887,-0.0831,-0.0838,-0.0899,-0.0915,-0.0927,-0.0895,-0.0744,0,0,0,0,0,-0.0625,-0.0643,-0.0661,-0.0683,-0.0687,-0.0701,-0.0707,-0.0719,-0.0723,-0.0728,-0.0744,-0.0771,-0.0809,-0.0838,-0.0853,-0.0913,-0.0905,-0.0986,-0.0999,-0.101,-0.0988,-0.1049,-0.1065,-0.0895,-0.0895,-0.0895,0,0,-0.0637,-0.0645,-0.0664,-0.0684,-0.0694,-0.0716,-0.0706,-0.0723,-0.0739,-0.0734,-0.0761,-0.0802,-0.0828,-0.0895,-0.0929,-0.0912,-0.106,-0.1018,-0.1027,-0.0998,-0.1057,-0.1073,-0.1088,-0.0899,-0.0899,-0.0898,0,0,-0.0652,-0.0667,-0.0684,-0.0702,-0.0726,-0.0734,-0.0752,-0.0767,-0.0762,-0.0807,-0.0815,-0.0906,-0.0947,-0.0998,-0.1027,-0.1121,-0.1112,-0.1149,-0.1204,-0.1266,-0.128,-0.1291,-0.132,-0.1333,-0.1172,-0.1172,-0.1172,0,-0.0666,-0.0679,-0.0693,-0.071,-0.0724,-0.0752,-0.0774,-0.0775,-0.0802,-0.0815,-0.0833,-0.0957,-0.1006,-0.1096,-0.1143,-0.1157,-0.1154,-0.1145,-0.1281,-0.1293,-0.1303,-0.1329,-0.1343,-0.1178,-0.1177,-0.1177,-0.1176,0,-0.0688,-0.0705,-0.0707,-0.0749,-0.078,-0.0787,-0.0809,-0.0836,-0.087,-0.0898,-0.0985,-0.1049,-0.1142,-0.1201,-0.1204,-0.1321,-0.1283,-0.1278,-0.1237,-0.1326,-0.1348,-0.1361,-0.1186,-0.1184,-0.1182,-0.1181,0,0,-0.0683,-0.0712,-0.0716,-0.0724,-0.0784,-0.0797,-0.0845,-0.0879,-0.0908,-0.0987,-0.1042,-0.1177,-0.124,-0.1275,-0.1323,-0.1388,-0.1506,-0.1367,-0.1368,-0.1385,-0.1605,-0.1356,-0.1345,-0.1512,-0.1514,-0.1516,-0.1596,0,-0.0684,-0.0692,-0.0728,-0.0763,-0.0762,-0.0818,-0.086,-0.0918,-0.0968,-0.1026,-0.1122,-0.1206,-0.1253,-0.1332,-0.141,-0.1463,-0.1537,-0.1481,-0.1522,-0.1523,-0.1284,-0.1351,-0.1524,-0.1605,-0.1608,-0.161,-0.1611,0,-0.0677,-0.0675,-0.0696,-0.0731,-0.0741,-0.0787,-0.0856,-0.0898,-0.0998,-0.1052,-0.1176,-0.1237,-0.1376,-0.1395,-0.1547,-0.1498,-0.1564,-0.16,-0.1604,-0.1331,-0.1295,-0.1495,-0.1633,-0.1631,-0.1629,-0.1628,-0.1627,0,-0.0617,-0.0641,-0.0643,-0.0659,-0.0731,-0.0756,-0.0804,-0.0913,-0.0942,-0.1073,-0.115,-0.1287,-0.1367,-0.1476,-0.1562,-0.1577,-0.1663,-0.1712,-0.1546,-0.153,-0.1686,-0.1672,-0.1817,-0.1817,-0.1817,-0.1817,-0.1816,0,-0.0569,-0.0566,-0.0604,-0.0603,-0.0617,-0.0707,-0.075,-0.0825,-0.0942,-0.0989,-0.1159,-0.1199,-0.1385,-0.1449,-0.1551,-0.1539,-0.1677,-0.1538,-0.153,-0.173,-0.172,-0.1696,-0.1681,-0.182,-0.1819,-0.1818,-0.1818,0,-0.0512,-0.0534,-0.0528,-0.0576,-0.0587,-0.0607,-0.069,-0.0733,-0.0869,-0.0939,-0.0993,-0.1142,-0.1201,-0.1326,-0.1463,-0.1483,-0.1534,-0.1499,-0.166,-0.1662,-0.1381,-0.1371,-0.1372,-0.1364,-0.1357,-0.1351,-0.1346,0,-0.0482,-0.0473,-0.0493,-0.0489,-0.0503,-0.0535,-0.0572,-0.0687,-0.0731,-0.0865,-0.0886,-0.0963,-0.1044,-0.1048,-0.1183,-0.1307,-0.131,-0.1365,-0.142,-0.1341,-0.1335,-0.1335,-0.1335,-0.1335,-0.1333,-0.1331,-0.1329,0,-0.042,-0.0435,-0.0429,-0.0421,-0.0431,-0.0446,-0.0484,-0.0501,-0.0635,-0.0744,-0.0752,-0.0802,-0.081,-0.0893,-0.0944,-0.1053,-0.1354,-0.1294,-0.1313,-0.1365,-0.1296,-0.1297,-0.1304,-0.1305,-0.1309,-0.1311,-0.1312,0,-0.0376,-0.0353,-0.035,-0.0343,-0.0351,-0.0355,-0.0385,-0.041,-0.0461,-0.0607,-0.056,-0.066,-0.0725,-0.0752,-0.0813,-0.0856,-0.0908,-0.0981,-0.1017,-0.1046,-0.09,-0.0762,-0.0587,0,0,0,0,0,-0.0325,-0.0288,-0.0273,-0.0254,-0.0269,-0.0276,-0.0336,-0.0385,-0.0471,-0.0441,-0.0507,-0.0508,-0.0554,-0.0598,-0.0591,-0.0707,-0.0932,-0.0701,-0.104,-0.1171,-0.1199,-0.1056,0,0,0,0,0,0,-0.0279,-0.0253,-0.0243,-0.0191,-0.017,-0.0182,-0.0218,-0.0284,-0.0272,-0.036,-0.0373,-0.0454,-0.0498,-0.0519,-0.0561,-0.0583,-0.0788,-0.0755,-0.0754,-0.1155,-0.1181,-0.1203,-0.1066,0,0,0,0,0]},{"header":{"parameterUnit":"m.s-1","parameterCategory":2,"la1":30.2991,"la2":30.254,"lo1":-89.0895,"lo2":-89.0444,"dy":0.0017,"dx":0.0017,"nx":28,"ny":28,"refTime":"2023-08-21T09:00:00:Z","depth":"4","parameterNumber":3,"parameterNumberName":"V-component_of_CURRENTS"},"data":[0,0,0,0,0,0,0,0,0,0,0,0,0,0,0,0,0,0,0,0,0,0,0,0,0,0,0,0,0,0,0,0,0,0,0,0,0,0,0,0,0,0,0,0,0,0,0,0,0,0,0,0,0,0,0,0,0,0,-0.0137,-0.0137,0,-0.0158,-0.0158,-0.0158,-0.0147,-0.0147,-0.0146,-0.0146,-0.015,-0.0151,-0.0151,0,0,0,0,0,0,0,0,0,0,0,0,0,-0.0085,-0.0086,-0.0137,-0.0137,-0.0138,-0.0158,-0.0158,-0.0159,-0.0147,-0.0147,-0.0146,-0.0146,-0.015,-0.0151,-0.0151,0,0,0,0,0,0,0,0,0,0,0,0,0,-0.0106,-0.0086,-0.0137,-0.0136,-0.0136,-0.0158,-0.0158,-0.0159,-0.0147,-0.0147,-0.0146,-0.0145,-0.015,-0.0151,-0.0151,-0.0169,0,0,-0.0154,-0.0154,0,0,0,0,0,0,0,0,-0.0105,-0.0107,-0.0135,-0.0136,-0.0136,-0.0151,-0.0142,-0.0162,-0.0147,-0.0141,-0.0146,-0.0145,-0.015,-0.0151,-0.0154,-0.0169,-0.0169,-0.0154,-0.0154,-0.0155,-0.0155,0,0,0,0,0,0,0,-0.0103,-0.0106,-0.0143,-0.0136,-0.0136,-0.0134,-0.0136,-0.0146,-0.0147,-0.0142,-0.0141,-0.0147,-0.015,-0.0154,-0.0154,-0.0169,-0.0154,-0.0154,-0.0155,-0.0155,-0.0204,-0.0205,0,0,0,0,0,0,-0.0105,-0.0105,-0.0143,-0.0144,-0.012,-0.0136,-0.0138,-0.0145,-0.0148,-0.0148,-0.0147,-0.0146,-0.0153,-0.0154,-0.0154,-0.0199,-0.0155,-0.0155,-0.0156,-0.0203,-0.0204,-0.0205,0,0,0,0,0,0,-0.0104,-0.0108,-0.0142,-0.0126,-0.0131,-0.0137,-0.0146,-0.0146,-0.0153,-0.0152,-0.0152,-0.0154,-0.0152,-0.0153,-0.0169,-0.0198,-0.0156,-0.0156,-0.0202,-0.0204,-0.0205,-0.0274,0,0,0,0,0,0,-0.0102,-0.0108,-0.0115,-0.0127,-0.0132,-0.0162,-0.0147,-0.0147,-0.0158,-0.0157,-0.0158,-0.0158,-0.0152,-0.0168,-0.017,-0.0199,-0.0157,-0.0201,-0.0203,-0.0204,-0.027,-0.0277,-0.0283,0,0,0,0,0,-0.01,-0.0118,-0.0115,-0.012,-0.0141,-0.0163,-0.0165,-0.0166,-0.0159,-0.0168,-0.0168,-0.0158,-0.0179,-0.0169,-0.0171,-0.0201,-0.0201,-0.0202,-0.0204,-0.0268,-0.0276,-0.0283,0,0,0,0,0,0,-0.0103,-0.0119,-0.0116,-0.0137,-0.015,-0.0161,-0.0175,-0.0172,-0.018,-0.0178,-0.0171,-0.0171,-0.0197,-0.0186,-0.0176,-0.0218,-0.0188,-0.019,-0.0235,-0.0243,-0.0249,-0.0265,-0.0158,0,0,0,0,0,-0.0106,-0.012,-0.0134,-0.0151,-0.0161,-0.0167,-0.0176,-0.0177,-0.0186,-0.0188,-0.0194,-0.0197,-0.0206,-0.0213,-0.0219,-0.0244,-0.0229,-0.0263,-0.0269,-0.0275,-0.0288,-0.0281,-0.0288,-0.0211,-0.0211,-0.0211,0,0,-0.0114,-0.0123,-0.0132,-0.0152,-0.0163,-0.0196,-0.0171,-0.0191,-0.0217,-0.0188,-0.0228,-0.0221,-0.0217,-0.0246,-0.0256,-0.0241,-0.0288,-0.0277,-0.0282,-0.0292,-0.0284,-0.0291,-0.0298,-0.0213,-0.0213,-0.0212,0,0,-0.0143,-0.0144,-0.017,-0.0185,-0.0204,-0.0214,-0.0222,-0.0241,-0.0246,-0.0277,-0.0264,-0.0277,-0.0294,-0.0302,-0.0305,-0.0349,-0.0321,-0.0346,-0.0395,-0.0389,-0.0395,-0.0401,-0.039,-0.0394,-0.035,-0.035,-0.035,0,-0.0152,-0.0187,-0.0181,-0.0213,-0.0239,-0.0228,-0.0272,-0.0279,-0.03,-0.0316,-0.0298,-0.0332,-0.0327,-0.0363,-0.0377,-0.0367,-0.035,-0.0368,-0.0398,-0.0403,-0.0407,-0.0395,-0.0398,-0.0353,-0.0353,-0.0353,-0.0352,0,-0.0205,-0.0234,-0.0254,-0.0294,-0.0317,-0.035,-0.0366,-0.0385,-0.039,-0.0401,-0.0433,-0.0422,-0.0443,-0.044,-0.0424,-0.0458,-0.0431,-0.0406,-0.0381,-0.0419,-0.0403,-0.0406,-0.0358,-0.0357,-0.0356,-0.0355,0,0,-0.0227,-0.0281,-0.0289,-0.0322,-0.0363,-0.0389,-0.0435,-0.0477,-0.0507,-0.0516,-0.056,-0.0568,-0.0553,-0.0555,-0.0532,-0.0524,-0.0539,-0.0482,-0.048,-0.0475,-0.0519,-0.048,-0.0479,-0.0513,-0.0514,-0.0514,-0.0495,0,-0.0275,-0.0345,-0.0366,-0.0444,-0.0486,-0.05,-0.0549,-0.0579,-0.0589,-0.0625,-0.0611,-0.0641,-0.0598,-0.0606,-0.0595,-0.0551,-0.0548,-0.0547,-0.0479,-0.0477,-0.0442,-0.0482,-0.0517,-0.0497,-0.0497,-0.0497,-0.0498,0,-0.0326,-0.0366,-0.0451,-0.0521,-0.0543,-0.0593,-0.0658,-0.0699,-0.0734,-0.0738,-0.0753,-0.0738,-0.0745,-0.0694,-0.0649,-0.0645,-0.0598,-0.0556,-0.0553,-0.0497,-0.0444,-0.0449,-0.0501,-0.0501,-0.0501,-0.0501,-0.05,0,-0.0343,-0.0426,-0.0496,-0.0522,-0.0603,-0.0649,-0.0694,-0.0741,-0.0772,-0.0811,-0.0827,-0.0826,-0.0818,-0.0769,-0.068,-0.0668,-0.0614,-0.0586,-0.0511,-0.0507,-0.0515,-0.051,-0.0567,-0.0567,-0.0567,-0.0567,-0.0567,0,-0.0386,-0.044,-0.0511,-0.055,-0.0634,-0.0684,-0.0765,-0.0797,-0.0848,-0.0881,-0.0888,-0.0883,-0.0833,-0.0788,-0.0713,-0.0616,-0.0641,-0.0534,-0.0506,-0.0544,-0.0542,-0.0517,-0.0511,-0.0566,-0.0567,-0.0567,-0.0567,0,-0.04,-0.0448,-0.0526,-0.0616,-0.0646,-0.0709,-0.08,-0.0842,-0.0891,-0.093,-0.0947,-0.0931,-0.0863,-0.0802,-0.071,-0.0649,-0.0569,-0.0528,-0.058,-0.0552,-0.0461,-0.0459,-0.046,-0.0459,-0.0458,-0.0457,-0.0456,0,-0.0417,-0.0458,-0.0556,-0.0599,-0.0646,-0.0734,-0.0785,-0.0855,-0.0879,-0.0931,-0.0932,-0.091,-0.0878,-0.0729,-0.0662,-0.0551,-0.052,-0.05,-0.0485,-0.0481,-0.0453,-0.0453,-0.0453,-0.0454,-0.0454,-0.0453,-0.0453,0,-0.0439,-0.0472,-0.0528,-0.0603,-0.0668,-0.074,-0.0805,-0.0826,-0.0892,-0.0934,-0.0902,-0.0862,-0.0784,-0.0687,-0.0612,-0.0523,-0.0531,-0.0487,-0.0489,-0.0475,-0.0473,-0.0447,-0.0448,-0.0449,-0.045,-0.045,-0.045,0,-0.044,-0.047,-0.0527,-0.0596,-0.0669,-0.0719,-0.0768,-0.0791,-0.0829,-0.0876,-0.0849,-0.0806,-0.0786,-0.067,-0.0589,-0.0517,-0.049,-0.047,-0.0472,-0.0476,-0.0482,-0.0482,-0.0451,0,0,0,0,0,-0.0432,-0.0448,-0.0509,-0.0577,-0.0648,-0.069,-0.0761,-0.0801,-0.0852,-0.0818,-0.0839,-0.0764,-0.0667,-0.0624,-0.054,-0.0559,-0.0481,-0.046,-0.0459,-0.0427,-0.0431,-0.0432,0,0,0,0,0,0,-0.0417,-0.0461,-0.0488,-0.0543,-0.0585,-0.0655,-0.0705,-0.0749,-0.0725,-0.0767,-0.07,-0.0725,-0.0612,-0.0693,-0.0525,-0.051,-0.0496,-0.0428,-0.0426,-0.0424,-0.0428,-0.0432,-0.0434,0,0,0,0,0]}]]